Weather History for KGAF - January, 2014

Change the Weather History Date:

Friday, January 17, 2014

  Actual Average (KGFK) Record (KGFK)
Temperature  
Mean Temperature -2 °F 6 °F  
Max Temperature 10 °F 16 °F 39 °F (2015)
Min Temperature -13 °F -4 °F -37 °F (2005)
Degree Days  
Heating Degree Days 66 59  
Month to date heating degree days 995  
Since 1 July heating degree days 4854  
Cooling Degree Days 0 0  
Month to date cooling degree days 0  
Year to date cooling degree days 0  
Moisture  
Dew Point -4 °F    
Average Humidity 78    
Maximum Humidity 92    
Minimum Humidity 65    
Precipitation  
Precipitation 0.00 in 0.02 in 0.32 in (1996)
Month to date precipitation 0.32  
Year to date precipitation 0.32  
Snow  
Snow 0.00 in 0.30 in 13.50 in (1996)
Month to date snowfall 6.2  
Since 1 July snowfall 26.1  
Snow Depth -    
Sea Level Pressure  
Sea Level Pressure 29.91 in    
Wind  
Wind Speed 11 mph (South)    
Max Wind Speed 22 mph    
Max Gust Speed 28 mph    
Visibility 8 miles    
Events Snow    
T = Trace of Precipitation, MM = Missing Value Source: NWS Daily Summary

Daily Weather History Graph

Daily Weather History Graph

Search for Another Location

Airport or City:

Trip Planner

Search our weather history database for the weather conditions in past years. The results will help you decide how hot, cold, wet, or windy it might be!

Date:

Astronomy

Jan. 17, 2014 Rise Set
Actual Time 8:14 AM CST 5:05 PM CST
Civil Twilight 7:39 AM CST 5:40 PM CST
Nautical Twilight 7:00 AM CST 6:19 PM CST
Astronomical Twilight 6:23 AM CST 6:56 PM CST
Moon 7:05 PM CST (1/17) 8:32 AM CST (1/17)
Length of Visible Light 10h 01m
Length of Day
8h 51m
Full, 98% of the Moon is Illuminated
Jan 17
Full
Jan 23
Last Quarter
Jan 30
New
Feb 6
First Quarter
Feb 14
Full

Hourly Weather History & Observations

Time (CST) Temp. Windchill Dew Point Humidity Pressure Visibility Wind Dir Wind Speed Gust Speed Precip Events Conditions
12:15 AM -0.4 °F -18.4 °F -7.6 °F 72% 30.16 in 10.0 mi NNW 12.7 mph - N/A   Clear
12:35 AM -0.4 °F -16.7 °F -9.4 °F 66% 30.15 in 10.0 mi North 10.4 mph - N/A   Clear
12:55 AM -0.4 °F -15.7 °F -9.4 °F 66% 30.15 in 10.0 mi NNW 9.2 mph - N/A   Clear
1:15 AM -2.2 °F -18.0 °F -9.4 °F 71% 30.15 in 10.0 mi NNW 9.2 mph - N/A   Clear
1:35 AM -2.2 °F -16.8 °F -9.4 °F 71% 30.15 in 10.0 mi NW 8.1 mph - N/A   Clear
1:55 AM -2.2 °F -16.8 °F -9.4 °F 71% 30.15 in 10.0 mi NW 8.1 mph - N/A   Clear
2:15 AM -4.0 °F -16.3 °F -11.2 °F 71% 30.15 in 10.0 mi NNW 5.8 mph - N/A   Clear
2:35 AM -4.0 °F -12.4 °F - N/A% 30.15 in 10.0 mi NNW 3.5 mph - N/A   Clear
2:55 AM -5.8 °F -18.4 °F - N/A% 30.15 in 10.0 mi NW 5.8 mph - N/A   Clear
3:15 AM -4.0 °F -17.8 °F -13.0 °F 65% 30.14 in 10.0 mi NNW 6.9 mph - N/A   Clear
3:35 AM -4.0 °F -17.8 °F -13.0 °F 65% 30.14 in 10.0 mi NNW 6.9 mph - N/A   Clear
3:55 AM -4.0 °F -12.4 °F -13.0 °F 65% 30.12 in 10.0 mi NNW 3.5 mph - N/A   Clear
4:15 AM -4.0 °F -12.4 °F - N/A% 30.13 in 10.0 mi WNW 3.5 mph - N/A   Clear
4:35 AM -7.6 °F -16.5 °F -13.0 °F 77% 30.12 in 10.0 mi NW 3.5 mph - N/A   Clear
4:55 AM -7.6 °F - -13.0 °F 77% 30.12 in 10.0 mi Calm Calm - N/A   Clear
5:15 AM -9.4 °F - -13.0 °F 84% 30.12 in 10.0 mi Calm Calm - N/A   Clear
5:35 AM -11.2 °F -23.0 °F -16.6 °F 77% 30.12 in 10.0 mi SW 4.6 mph - N/A   Clear
5:55 AM -9.4 °F -22.7 °F -14.8 °F 77% 30.12 in 10.0 mi SW 5.8 mph - N/A   Clear
6:15 AM -11.2 °F -26.4 °F -16.6 °F 77% 30.12 in 10.0 mi SW 6.9 mph - N/A   Clear
6:35 AM -11.2 °F -26.4 °F -16.6 °F 77% 30.10 in 10.0 mi South 6.9 mph - N/A   Clear
6:55 AM -13.0 °F -30.0 °F -18.4 °F 77% 30.09 in 10.0 mi SSE 8.1 mph - N/A   Clear
7:15 AM -13.0 °F -30.0 °F -16.6 °F 84% 30.09 in 10.0 mi South 8.1 mph - N/A   Clear
7:35 AM -11.2 °F -27.8 °F -16.6 °F 77% 30.08 in 10.0 mi South 8.1 mph - N/A   Clear
7:55 AM -11.2 °F -26.4 °F -16.6 °F 77% 30.08 in 10.0 mi South 6.9 mph - N/A   Clear
8:15 AM -11.2 °F -26.4 °F -16.6 °F 77% 30.07 in 10.0 mi South 6.9 mph - N/A   Clear
8:35 AM -11.2 °F -27.8 °F -16.6 °F 77% 30.07 in 10.0 mi South 8.1 mph - N/A   Clear
8:55 AM -9.4 °F -24.3 °F -14.8 °F 77% 30.06 in 10.0 mi SSE 6.9 mph - N/A   Clear
9:15 AM -9.4 °F -22.7 °F -14.8 °F 77% 30.06 in 10.0 mi South 5.8 mph - N/A   Clear
9:35 AM -7.6 °F -22.1 °F -13.0 °F 77% 30.06 in 10.0 mi South 6.9 mph - N/A   Clear
9:55 AM -5.8 °F -19.9 °F -11.2 °F 77% 30.06 in 10.0 mi SSE 6.9 mph - N/A   Clear
10:15 AM -4.0 °F -20.2 °F -9.4 °F 78% 30.06 in 10.0 mi South 9.2 mph - N/A   Clear
10:35 AM -2.2 °F -20.7 °F -9.4 °F 71% 30.05 in 10.0 mi South 12.7 mph - N/A   Clear
10:55 AM -2.2 °F -19.9 °F -9.4 °F 71% 30.04 in 10.0 mi South 11.5 mph - N/A   Clear
11:15 AM -0.4 °F -19.2 °F -7.6 °F 72% 30.03 in 10.0 mi South 13.8 mph - N/A   Clear
11:35 AM 1.4 °F -17.6 °F -5.8 °F 72% 30.00 in 10.0 mi South 15.0 mph - N/A   Clear
11:55 AM 1.4 °F -18.2 °F -4.0 °F 78% 29.99 in 10.0 mi South 16.1 mph - N/A   Clear
12:15 PM 3.2 °F -13.9 °F -2.2 °F 78% 29.97 in 10.0 mi SSE 12.7 mph - N/A   Clear
12:35 PM 5.0 °F -13.0 °F -2.2 °F 72% 29.96 in 10.0 mi SSE 15.0 mph - N/A   Clear
12:55 PM 5.0 °F -13.0 °F -0.4 °F 78% 29.95 in 10.0 mi South 15.0 mph - N/A   Clear
1:15 PM 5.0 °F -13.6 °F -0.4 °F 78% 29.93 in 10.0 mi South 16.1 mph - N/A   Clear
1:35 PM 5.0 °F -13.0 °F -0.4 °F 78% 29.92 in 10.0 mi SSE 15.0 mph - N/A   Clear
1:55 PM 6.8 °F -11.3 °F -0.4 °F 72% 29.90 in 10.0 mi SSE 16.1 mph - N/A   Clear
2:15 PM 6.8 °F -12.9 °F -0.4 °F 72% 29.89 in 10.0 mi SSE 19.6 mph - N/A   Clear
2:35 PM 6.8 °F -11.3 °F -0.4 °F 72% 29.89 in 10.0 mi SSE 16.1 mph - N/A   Clear
2:55 PM 6.8 °F -12.4 °F -0.4 °F 72% 29.88 in 10.0 mi SSE 18.4 mph - N/A   Mostly Cloudy
3:15 PM 6.8 °F -13.4 °F -0.4 °F 72% 29.85 in 10.0 mi SSE 20.7 mph - N/A   Mostly Cloudy
3:35 PM 6.8 °F -12.9 °F -0.4 °F 72% 29.82 in 10.0 mi SSE 19.6 mph 24.2 mph N/A   Partly Cloudy
3:55 PM 6.8 °F -11.8 °F -0.4 °F 72% 29.81 in 10.0 mi SSE 17.3 mph - N/A   Clear
4:15 PM 6.8 °F -10.7 °F -0.4 °F 72% 29.83 in 10.0 mi South 15.0 mph - N/A   Clear
4:35 PM 6.8 °F -10.7 °F -0.4 °F 72% 29.84 in 10.0 mi SSE 15.0 mph 20.7 mph N/A   Clear
4:55 PM 6.8 °F -12.9 °F 1.4 °F 79% 29.81 in 10.0 mi SSE 19.6 mph - N/A   Clear
5:15 PM 6.8 °F -12.4 °F 1.4 °F 79% 29.79 in 10.0 mi SSE 18.4 mph - N/A   Mostly Cloudy
5:35 PM 6.8 °F -12.9 °F 1.4 °F 79% 29.76 in 6.0 mi SSE 19.6 mph - N/A   Haze
5:55 PM 6.8 °F -13.8 °F 3.2 °F 85% 29.74 in 3.0 mi SSE 21.9 mph 27.6 mph N/A Snow Light Snow
6:15 PM 8.6 °F -10.5 °F 5.0 °F 85% 29.72 in 2.5 mi SSE 19.6 mph - N/A Snow Light Snow
6:35 PM 8.6 °F -10.5 °F 5.0 °F 85% 29.71 in 2.0 mi SSE 19.6 mph - N/A Snow Light Snow
6:55 PM 8.6 °F -10.5 °F 5.0 °F 85% 29.68 in 1.5 mi SSE 19.6 mph - N/A Snow Light Snow
7:15 PM 8.6 °F -10.5 °F 5.0 °F 85% 29.68 in 1.5 mi SSE 19.6 mph - N/A Snow Light Snow
7:35 PM 8.6 °F -11.0 °F 5.0 °F 85% 29.66 in 1.5 mi SSE 20.7 mph - N/A Snow Light Snow
7:55 PM 8.6 °F -11.4 °F 5.0 °F 85% 29.64 in 0.5 mi SSE 21.9 mph - N/A Snow Snow
8:15 PM 8.6 °F -10.5 °F 6.8 °F 92% 29.63 in 0.5 mi SSE 19.6 mph - N/A Snow Snow
8:35 PM 8.6 °F -11.4 °F 6.8 °F 92% 29.60 in 0.5 mi SSE 21.9 mph - N/A Snow Snow
8:55 PM 8.6 °F -11.4 °F 6.8 °F 92% 29.57 in 0.8 mi SSE 21.9 mph 27.6 mph N/A Snow Light Snow
9:15 PM 8.6 °F -11.0 °F 6.8 °F 92% 29.55 in 1.0 mi SSE 20.7 mph - N/A Snow Light Snow
9:35 PM 8.6 °F -11.4 °F 6.8 °F 92% 29.53 in 1.0 mi SSE 21.9 mph - N/A Snow Light Snow
9:55 PM 10.4 °F -8.2 °F 6.8 °F 85% 29.51 in 0.5 mi SSE 19.6 mph 25.3 mph N/A Snow Snow
10:15 PM 10.4 °F -7.7 °F 6.8 °F 85% 29.50 in 0.5 mi SSE 18.4 mph - N/A Snow Snow
10:35 PM 10.4 °F -8.2 °F 8.6 °F 92% 29.49 in 0.8 mi SSE 19.6 mph - N/A Snow Light Snow
10:55 PM 10.4 °F -6.6 °F 8.6 °F 92% 29.48 in 1.0 mi SSE 16.1 mph - N/A Snow Light Snow
11:15 PM 10.4 °F -7.2 °F 8.6 °F 92% 29.47 in 1.2 mi SSE 17.3 mph - N/A Snow Light Snow
11:35 PM 10.4 °F -6.0 °F 8.6 °F 92% 29.46 in 1.5 mi SE 15.0 mph - N/A Snow Light Snow
11:55 PM 10.4 °F -4.1 °F 8.6 °F 92% 29.46 in 3.0 mi ESE 11.5 mph - N/A Snow Light Snow